User: anonymous   Login
Location: Unspecified
(0.0000°N, 0.0000°E)
Time: 07:44:37
(UTC+00:00)
Language:

ESSA 4 - Orbit

View from above orbital plane
View from above orbital plane
View from above satellite
View from above satellite

Ground track
Ground track

The orbit data is extracted from the following two-line orbital elements,

1 02657U 67006A   18112.68275420 -.00000055  00000-0 -28716-4 0  9996
2 02657 102.0637 144.1130 0073278  12.6589  92.9406 12.69843408375047
Epoch (UTC): 22 April 2018 16:23:09
Eccentricity: 0.0073278
inclination: 102.0637°
perigee height: 1326 km
apogee height: 1439 km
right ascension of ascending node: 144.1130°
argument of perigee: 12.6589°
revolutions per day: 12.69843408
mean anomaly at epoch: 92.9406°
orbit number at epoch: 37504

The dashed part of the orbit path shows where the satellite is in the earth's shadow,  

DLR